Regional Weather Roundup
Issued by NWS

Home | Current Version | Previous Version | Text Only | Print | Product List | Glossary Off
Versions: 1 2 3 4 5 6 7 8 9 10 11 12 13 14 15 16 17 18 19 20 21 22 23 24 25 26 27 28 29 30 31 32 33 34 35 36 37 38 39 40 41 42 43 44 45 46 47 48 49 50

000
ASUS43 KDMX 291004
RWRIA

WEATHER ROUNDUP FOR IOWA
NATIONAL WEATHER SERVICE DES MOINES IA
  ISSUED BY NWS QUAD CITIES IA IL
400 AM CST THU JAN 29 2015

NOTE: "FAIR" INDICATES FEW OR NO CLOUDS BELOW 12,000 FEET WITH NO
SIGNIFICANT WEATHER AND/OR OBSTRUCTIONS TO VISIBILITY.

* - THESE STATIONS ARE NOT NWS STATIONS...THUS NOT UNDER NWS
QUALITY CONTROL.  THEY ALSO DO NOT REPORT WEATHER SUCH
AS PRECIPITATION OR FOG.

IAZ001>003-012>014-020>022-031>034-043>046-291100-
   NORTHWEST IOWA

CITY           SKY/WX    TMP DP  RH WIND       PRES   REMARKS
CARROLL *      LGT RAIN  34  32  93 NW24G31   30.04R WCI  21
CHEROKEE *     CLOUDY    33  32  96 NW18G32   30.08R WCI  22
DENNISON *     CLOUDY    34  32  93 N22G35    30.05R WCI  22
LE MARS *      CLOUDY    34  30  86 NW21G31   30.14R WCI  22
ORANGE CITY *  CLOUDY    34  30  86 NW16G26   30.11R WCI  23
SHELDON *      CLOUDY    34  32  93 NW24G32   30.08R WCI  21
SIOUX CITY     CLOUDY    35  30  82 NW28G38   30.12R WCI  22
SPENCER        CLOUDY    34  28  79 NW30G43   30.05R WCI  20
STORM LAKE *   CLOUDY    34  30  86 NW29G38   30.05R WCI  20
$$

IAZ055>058-069>071-079>083-090>094-291100-
   SOUTHWEST IOWA

CITY           SKY/WX    TMP DP  RH WIND       PRES   REMARKS
ATLANTIC *     CLOUDY    36  32  87 NW18G25   30.07R WCI  25
AUDUBON *      CLOUDY    36  30  80 NW17G28   30.06R WCI  25
CLARINDA *     CLOUDY    37  32  81 NW22G31   30.10R WCI  27
COUNCIL BLFS * CLOUDY    34  32  93 NW24G33   30.09R WCI  21
CRESTON *      CLOUDY    36  32  87 NW28G41   30.01R WCI  23
HARLAN *       CLOUDY    36  34  93 NW26G35   30.12R WCI  23
LAMONI         CLOUDY    37  31  78 NW22G33   30.00R WCI  26
RED OAK *      CLOUDY    37  30  75 NW18G30   30.10R WCI  27
SHENANDOAH *   CLOUDY    37  30  75 N25G36    30.13R WCI  26
$$

IAZ047>049-059>061-072>074-084-291100-
   CENTRAL IOWA

CITY           SKY/WX    TMP DP  RH WIND       PRES   REMARKS
AMES           CLOUDY    35  30  82 N18G30    29.96R WCI  24
ANKENY *       CLOUDY    36  32  87 NW20      29.97R WCI  25
BOONE *        MIX PCPN  34  34 100 NW24G31   29.96R WCI  21
CHARITON *     MIX PCPN  36  32  87 NW23G33   29.96R WCI  24
DES MOINES     DRIZZLE   37  31  78 NW20G26   29.97R WCI  27
GRINNELL *     CLOUDY    34  31  90 NW22G29   29.90R WCI  22
KNOXVILLE *    CLOUDY    36  30  80 NW28G37   29.92R WCI  23
MARSHALLTOWN   CLOUDY    34  30  85 NW22G29   29.91R WCI  22
NEWTON *       CLOUDY    36  30  80 N22G31    29.93R WCI  24
PELLA *        CLOUDY    35  31  83 NW22G32   29.95R WCI  24
PERRY *          N/A     35  32  90 NW22G33   30.01R WCI  23
$$

IAZ004>006-015-016-023>025-035-036-291100-
   NORTH CENTRAL IOWA

CITY           SKY/WX    TMP DP  RH WIND       PRES   REMARKS
ALGONA *       MIX PCPN  34  32  93 NW22G33   29.99R WCI  22
CLARION *      MIX PCPN  34  34 100 NW23G30   29.95R WCI  22
ESTHERVILLE    CLOUDY    31  29  92 NW31G37   30.01R WCI  16
FORT DODGE *   CLOUDY    34  28  80 NW12G23   30.00R WCI  25
MASON CITY     CLOUDY    33  31  92 NW23      29.94R WCI  21
WEBSTER CITY * MIX PCPN  34  34 100 NW26G35   29.95R WCI  21
IOWA FALLS *   CLOUDY    33  31  94 NW22G30   29.94R FOG     WCI  21
$$

IAZ007>011-017>019-026>030-037>042-050>054-066-291100-
   NORTHEAST IOWA

CITY           SKY/WX    TMP DP  RH WIND       PRES   REMARKS
CEDAR RAPIDS   CLOUDY    33  32  96 NW20      29.82R FOG     WCI  21
CHARLES CITY * CLOUDY    32  32 100 NW20G31   29.89R WCI  20
CLINTON *      MOCLDY    30  27  86 N13       29.76R WCI  20
DECORAH *      CLOUDY    32  30  93 N20G30    29.83R WCI  20
DUBUQUE        CLOUDY    31  29  92 N13       29.76R FOG     WCI  21
MONTICELLO *   CLOUDY    32  32 100 NW16      29.79R FOG     WCI  21
OELWEIN *      CLOUDY    32  32 100 N18       29.85R WCI  20
WATERLOO       CLOUDY    33  30  88 NW22G32   29.88R WCI  21
$$

IAZ064-065-067-068-078-291100-
   EAST CENTRAL IOWA

CITY           SKY/WX    TMP DP  RH WIND       PRES   REMARKS
DAVENPORT      CLOUDY    31  28  89 NW13      29.76R FOG     WCI  21
IOWA CITY      CLOUDY    34  32  92 NW16G24   29.84R FOG     WCI  24
MT. PLEASANT * CLOUDY    35  32  89 NW16G31   29.84R WCI  25
MUSCATINE *    CLOUDY    36  32  87 NW18G29   29.80R WCI  25
QUAD CITIES    CLOUDY    34  29  82 NW14      29.74R WCI  25
$$

IAZ062-063-075>077-085>089-095>099-291100-
   SOUTHEAST IOWA

CITY           SKY/WX    TMP DP  RH WIND       PRES   REMARKS
BURLINGTON     CLOUDY    37  33  85 NW17G28   29.79R WCI  27
FAIRFIELD *    CLOUDY    36  32  87 NW25G33   29.87R WCI  23
FORT MADISON * CLOUDY    37  34  87 NW24G33   29.82R WCI  26
KEOKUK *       CLOUDY    39  34  81 NW21G29   29.82R WCI  29
OTTUMWA        CLOUDY    35  31  85 NW21G28   29.90R WCI  24
WASHINGTON *   CLOUDY    36  36 100 NW21G29   29.84R WCI  24
$$

ABBREVIATIONS USED IN REMARKS
   TC - TEMPERATURES IN CELSIUS
  WCI - WIND CHILL INDEX
   HX - HEAT INDEX
  VSB - VISIBILITY
$$



USA.gov is the U.S. government's official web portal to all federal, state and local government web resources and services.